Tracking 22124 objects as of 25-Jan-2021
HD Live streaming from Space Station
objects crossing your sky now

LEASAT 1

Track LEASAT 1 now!
LEASAT 1 is classified as:


NORAD ID: 15384
Int'l Code: 1984-113C
Perigee: 36,168.4 km
Apogee: 36,402.3 km
Inclination: 13.2 °
Period: 1,461.3 minutes
Semi major axis: 42656 km
RCS: 16.1907 m2 (large)
Launch date: November 8, 1984
Source: United States (US)
Launch site: AIR FORCE EASTERN TEST RANGE (AFETR)
aabbcc
Your satellite tracking list
Your tracking list is empty




NASA's NSSDC Master Catalog

Two Line Element Set (TLE):
1 15384U 84113C   21024.18088770 -.00000013  00000-0  00000-0 0  9991
2 15384  13.2425 350.1418 0027417 259.5113 343.7449  0.98543430104509
Source of the keplerian elements: AFSPC